THORAD DELTA 1 DEB, 8161

Orbit data source: Space-Track

THORAD DELTA 1 DEB, 8161 is space debris in LEO originally from a launch on Fri, 15 Nov 1974 UTC launched from the Air Force Western Test Range (AFWTR). Debris objects in space refer to the collection of defunct objects orbiting the Earth. Examples of debris include non-operational satellites, rocket bodies, and fragments generated from explosions, collisions, or faulty payload assembly.

Loading next visibility...
THORAD DELTA 1 DEB details
Identifier
8161, 1974-089AB
Orbit
LEO
Last TLE update2 days ago
Origin
Flag of USGSFC (US)
ManufacturerUnknown
MissionSpacecraft
Bus & MotorUnknown
MassUnknown
Launch date (UTC)
1974-11-15 (50 years ago)
Launch vehicleUnknown
Launch site
Air Force Western Test Range (AFWTR)
Object type
Payload
Rocket body
Debris
Shape & HBRUnknown
Radar Cross SectionSmall (<0.1 m²)

Expand to show TLE details & history

TLE from 2 days ago
0 THORAD DELTA 1 DEB
1  8161U 74089AB  24359.84957992  .00000022  00000-0  58326-3 0  9991
2  8161 101.2364 100.3170 0363257  35.5459  81.2795 11.99324405187864
Epoch: 2024-12-24T20:23Z
Definitive object data (Epoch: 2024-12-24T20:23:23.705Z)
Latitude57.34187°
Longitude-101.41702°
Altitude1,659.384 km
Speed7.064 km/s
True Right ascension19h 53m 08s
True Declination57° 12' 11"
Sunlit
Object was in daylight at TLE epoch
Visualization TLE readout
Latitude-29.30972°
Longitude-124.38186°
Altitude1,986.996 km
Speed6.777 km/s
Apparent Right ascension19h 54m 03s
Apparent Declination-37° 21' 07"
Sunlit
Object is in daylight
Visualization observer readout
Local Sidereal Time10:17:48
Azimuth96.402° ESE
Elevation-62.001°
Doppler factor1
Orbital elements
Apogee altitude1,974.238 km
Perigee altitude1,388.696 km
Semi-major axis8,059.604 km
Eccentricity0.0363257
Inclination101.2364°
RAAN100.317°
Arg. of periapsis35.5459°
True anomaly85.4189°
Mean anomaly81.2795°
Eccentric anomaly83.34679°
Mean motion2.99966 °/min
BSTAR0.00058326
Orbital period120.01 mins
Loading maneuver chart data...

THORAD DELTA 1 DEB Visibility forecast

Observer location: undefined°, undefined

Span
Click to sort rows by Start time (UTC) header in descending order
Start Az.
Max El. time (UTC)
Max El. Az.
Max El.
End time (UTC)
End Az.
15 mins2024-12-26 18:26:32.564Z41.744° NE2024-12-26 18:33:32.564Z96.111° ESE26.923°2024-12-26 18:41:32.564Z151.688° SSE
17 mins2024-12-26 20:24:32.564Z8.651° NNE2024-12-26 20:31:32.564Z297.079° NW42.587°2024-12-26 20:41:32.564Z213.296° SW
8 mins2024-12-26 22:24:32.564Z335.869° NNW2024-12-26 22:27:32.564Z314.652° NW15.581°2024-12-26 22:32:32.564Z281.617° WNW
13 mins2024-12-27 05:56:32.564Z131.189° SE2024-12-27 06:02:32.564Z56.879° ENE37.4°2024-12-27 06:09:32.564Z353.776° N
11 mins2024-12-27 07:55:32.564Z213.204° SW2024-12-27 08:00:32.564Z265.423° W27.841°2024-12-27 08:06:32.564Z320.752° NNW
|